Regional Weather Roundup
Issued by NWS

Home | Current Version | Previous Version | Text Only | Print | Product List | Glossary Off
Versions: 1 2 3 4 5 6 7 8 9 10 11 12 13 14 15 16 17 18 19 20 21 22 23 24 25 26 27 28 29 30 31 32 33 34 35 36 37 38 39 40 41 42 43 44 45 46 47 48 49 50

000
ASUS45 KBOI 220010
RWRID

IDAHO REGIONAL WEATHER ROUNDUP
NATIONAL WEATHER SERVICE BOISE ID
500 PM MST SAT JAN 21 2017

NOTE: "FAIR" INDICATES FEW OR NO CLOUDS BELOW 12000 FEET
WITH NO SIGNIFICANT WEATHER AND/OR OBSTRUCTIONS TO VISIBILITY

IDZ012-014-220100-
SOUTHWEST IDAHO


CITY           SKY/WX    TMP DP  RH WIND       PRES   REMARKS
BOISE          CLOUDY    38  32  79 SE7       29.70R WCI  33
CALDWELL       CLOUDY    38  33  82 E9        29.71R WCI  31
MOUNTAIN HOME  MOCLDY    35  35 100 E8        29.70R WCI  28
$$

IDZ016-017-220100-
SOUTHCENTRAL IDAHO


CITY           SKY/WX    TMP DP  RH WIND       PRES   REMARKS
BURLEY         MOCLDY    36  27  69 W7        29.70R WCI  30
JEROME         MOCLDY    33  28  81 SW8       29.71R WCI  26
TWIN FALLS     MOCLDY    36  26  67 W8        29.71R WCI  30
$$

IDZ019>023-220100-
SOUTHEAST IDAHO


CITY           SKY/WX    TMP DP  RH WIND       PRES   REMARKS
IDAHO FALLS    CLOUDY    30  28  92 SW13G21   29.66R WCI  20
POCATELLO      MOCLDY    32  27  81 SW15      29.70R WCI  22
REXBURG        CLOUDY    29  27  92 SW12      29.65R WCI  19
$$

IDZ006-010-011-018-031-032-220100-
CENTRAL IDAHO MOUNTAINS


CITY           SKY/WX    TMP DP  RH WIND       PRES   REMARKS
MCCALL         CLOUDY    30  24  78 S10       29.61R WCI  21
HAILEY         MOCLDY    30  27  86 CALM      29.66R
STANLEY          N/A     26  23  88 NW3       29.62R
SALMON         CLOUDY    19  16  86 CALM      29.65R
CHALLIS        CLOUDY    21  19  92 CALM      29.62R
$$

IDZ002-004-006-007-026-220100-
NORTHERN IDAHO


CITY           SKY/WX    TMP DP  RH WIND       PRES   REMARKS
LEWISTON       CLOUDY    42  31  64 CALM      29.59R
LOWELL           N/A     35  32  88 N3        29.65R
COEUR D`ALENE  LGT RAIN  35  32  88 N12       29.59R WCI  27
MULLAN PASS    FOG       26  24  92 CALM      29.51R VSB 1/2
$$



USA.gov is the U.S. government's official web portal to all federal, state and local government web resources and services.